Location: Bartshausen
(51.8454°N, 9.8167°E)
Time: 22:11:45
(UTC+00:00)

Iridium 4 Rocket - Pass Details

Date: 17 February 2026
Orbit: 579 x 887 km, 86.9° (Epoch: 11 March)

Event Time Altitude Azimuth Distance (km) Brightness Sun altitude
Rises 18:58:48 0° 358° (N) 3,096 6.8 -22.2°
Reaches altitude 10° 19:01:12 10° 1° (N) 2,125 5.9 -22.5°
Enters shadow 19:05:14 59° 38° (NE) 747 3.2 -23.2°
